TimeEDT,TemperatureF,Dew PointF,Humidity,Sea Level PressureIn,VisibilityMPH,Wind Direction,Wind SpeedMPH,Gust SpeedMPH,PrecipitationIn,Events,Conditions,WindDirDegrees,DateUTC
12:54 AM,39.0,37.0,93,30.18,10.0,West,9.2,21.9,N/A,,Clear,260,2012-10-12 04:54:00
1:54 AM,39.0,37.0,93,30.17,10.0,West,10.4,20.7,N/A,,Clear,260,2012-10-12 05:54:00
2:54 AM,37.9,36.0,93,30.16,10.0,West,8.1,-,N/A,,Clear,270,2012-10-12 06:54:00
3:54 AM,39.0,37.9,96,30.14,9.0,Calm,Calm,-,N/A,,Clear,0,2012-10-12 07:54:00
4:54 AM,39.0,37.0,93,30.13,8.0,West,8.1,-,N/A,,Clear,260,2012-10-12 08:54:00
5:54 AM,42.1,41.0,96,30.13,10.0,West,12.7,-,N/A,,Clear,270,2012-10-12 09:54:00
6:54 AM,41.0,39.9,96,30.14,8.0,West,11.5,-,N/A,,Clear,260,2012-10-12 10:54:00
7:54 AM,43.0,42.1,97,30.14,5.0,West,10.4,24.2,N/A,,Clear,270,2012-10-12 11:54:00
8:54 AM,52.0,48.0,86,30.15,10.0,West,17.3,26.5,N/A,,Clear,270,2012-10-12 12:54:00
10:54 AM,61.0,37.9,42,30.16,10.0,WNW,12.7,31.1,N/A,,Clear,290,2012-10-12 14:54:00
12:54 PM,64.9,39.0,39,30.15,10.0,North,13.8,19.6,N/A,,Mostly Cloudy,350,2012-10-12 16:54:00
1:54 PM,64.0,39.0,40,30.15,10.0,NNW,15.0,23.0,N/A,,Partly Cloudy,330,2012-10-12 17:54:00
2:54 PM,63.0,39.0,41,30.16,10.0,NW,16.1,26.5,N/A,,Partly Cloudy,310,2012-10-12 18:54:00
3:54 PM,59.0,37.0,44,30.19,10.0,NNW,13.8,19.6,N/A,,Clear,330,2012-10-12 19:54:00
4:54 PM,57.0,34.0,42,30.23,10.0,NNW,16.1,23.0,N/A,,Partly Cloudy,340,2012-10-12 20:54:00
6:54 PM,52.0,32.0,47,30.29,10.0,NW,4.6,-,N/A,,Clear,320,2012-10-12 22:54:00
7:54 PM,48.0,32.0,54,30.32,10.0,NNW,5.8,-,N/A,,Clear,340,2012-10-12 23:54:00
8:54 PM,45.0,32.0,60,30.35,10.0,North,3.5,-,N/A,,Clear,350,2012-10-13 00:54:00
10:54 PM,43.0,28.9,58,30.41,10.0,NNW,3.5,-,N/A,,Clear,330,2012-10-13 02:54:00
11:54 PM,39.0,30.0,70,30.43,10.0,North,3.5,-,N/A,,Clear,10,2012-10-13 03:54:00